Regional Weather Roundup
Issued by NWS

Home | Current Version | Previous Version | Graphics & Text | Print | Product List | Glossary On
Versions: 1 2 3 4 5 6 7 8 9 10 11 12 13 14 15 16 17 18 19 20 21 22 23 24 25 26 27 28 29 30 31 32 33 34 35 36 37 38 39 40 41 42 43 44 45 46 47 48 49 50
000
ASUS45 KCYS 221510
RWRWY

WYOMING REGIONAL WEATHER ROUNDUP
NATIONAL WEATHER SERVICE CHEYENNE WY
900 AM MDT MON MAY 22 2017

NOTE:  "FAIR" INDICATES FEW OR NO CLOUDS BELOW 12,000 FEET
WITH NO SIGNIFICANT WEATHER AND/OR OBSTRUCTIONS TO VISIBILITY.

WYZ001-221600-
YELLOWSTONE NATIONAL PARK

CITY           SKY/WX    TMP DP  RH WIND       PRES   REMARKS
LK YELLOWSTONE   N/A     37  30  75 VRB3      30.35S
W YELLOWSTONE  NOT AVBL

$$
WYZ002>013-054>058-071-098>099-221600-
NORTHERN WYOMING

CITY           SKY/WX    TMP DP  RH WIND       PRES   REMARKS
JACKSON        SUNNY     45  28  53 CALM      30.32F
CODY           FAIR      50  39  66 N17       30.23R
GREYBULL       LGT RAIN  52  38  58 NW6       30.18R
WORLAND        CLOUDY    52  42  69 CALM      30.17R
SHERIDAN       LGT RAIN  50  44  80 W15       30.13F
BUFFALO        LGT RAIN  46  40  79 NW17G26   30.17R
GILLETTE       FAIR      51  45  79 W14       30.09S
HULETT         FAIR      52  41  66 N10       30.08S
NEWCASTLE      FAIR      50  41  71 NW16      30.08S

$$
WYZ014>020-022>026-101>103-221600-
CENTRAL WYOMING

CITY           SKY/WX    TMP DP  RH WIND       PRES   REMARKS
BIG PINEY      FAIR      45  37  73 S3        30.32S
PINEDALE       FAIR      46  34  61 NW9       30.31F
DUBOIS         FAIR      50  28  43 N9        30.26F
LANDER         FAIR      53  40  61 SE3       30.20R
RIVERTON       FAIR      56  37  49 NW15      30.20S
CASPER         PTSUNNY   50  38  63 W9        30.15F
DOUGLAS        CLOUDY    50  37  61 NW12      30.14R

$$
WYZ021-027>030-104>119-221600-
SOUTHERN WYOMING

CITY           SKY/WX    TMP DP  RH WIND       PRES   REMARKS
EVANSTON       FAIR      46  39  76 SW3       30.34S
KEMMERER         N/A     46  34  61 NW7       30.34S
FORT BRIDGER   FAIR      52  36  54 NW8       30.36
ROCK SPRINGS   FAIR      46  39  76 W12       30.30S
DIXON            N/A     45  35  68 CALM      30.32S
RAWLINS        FAIR      48  36  63 W15       30.25F
SARATOGA       FAIR      43  36  75 SE3       30.28S
LARAMIE        FAIR      49  30  48 NW14      30.21F
CHEYENNE       FAIR      53  30  41 NW15G24   30.17S
TORRINGTON     CLOUDY    52  40  63 NW13      30.10R
PINE BLUFFS    FAIR      55  36  47 NW20G26   30.14F

$$



USA.gov is the U.S. government's official web portal to all federal, state and local government web resources and services.